Torna al catalogo

FENGYUN 1C DEB

AttivoSSO
NORAD 33651·DEBRIS·🇨🇳 China

Lanciato May 10, 1999 da Taiyuan Satellite Launch Center

Loading…

Prossimi Passaggi (prossime 24 ore)

TLE

AggiornatoSource: Space-Track

Epoca: Sep 11, 2026, 09:11 UTC

1 33651U 99025DEL 26254.38314527  .00000157  00000-0  87176-4 0  9991
2 33651  98.6209 298.7210 0116355 346.3287  13.4747 14.20531254681421

Traccia FENGYUN 1C DEB in tempo reale con AllMySat

Download on the App Store